Location: Bratislava
(0.0000°N, 17.1167°E)
Time: 03:30:20
(UTC+01:00)

Cosmos 1892 - Pass Details

Date: 24 January 2021
Orbit: 504 x 522 km, 82.5° (Epoch: 06 March)

Event Time Altitude Azimuth Distance (km) Brightness Sun altitude
Rises 18:29:52 0° 160° (SSE) 2,604 6.3 -6.2°
Reaches altitude 10° 18:32:23 10° 144° (SE) 1,715 5.2 -6.8°
Maximum altitude 18:35:14 21° 94° (E) 1,182 4.0 -7.4°
Drops below altitude 10° 18:38:05 10° 44° (NE) 1,706 4.8 -8.1°
Enters shadow 18:39:01 - 36° (NE) 2,020 5.2 -8.3°
